Retour au catalogue

ARIANE 1 DEB

ActifSSO
NORAD 17702·DEBRIS·🇫🇷 France

Lancé Feb 22, 1986 depuis Guiana Space Centre

Loading…

Prochains Passages (prochaines 24 heures)

TLE

FraisSource: Space-Track

Époque: Sep 14, 2026, 00:51 UTC

1 17702U 86019LU  26257.03588877  .00000883  00000-0  20905-3 0  9997
2 17702  98.0326 276.9492 0005502 163.4327 196.7053 14.56328255 91961

Suivez ARIANE 1 DEB en temps réel avec AllMySat

Download on the App Store